Year,Month,Day,Hour,Minute,Value (Times are PST for temperature in C)
2016,04,07,00,00,11.80
2016,04,07,00,01,11.80
2016,04,07,00,02,11.80
2016,04,07,00,03,11.80
2016,04,07,00,04,11.80
2016,04,07,00,05,11.80
2016,04,07,00,06,11.80
2016,04,07,00,07,11.80
2016,04,07,00,08,11.80
2016,04,07,00,09,11.80
2016,04,07,00,10,11.80
2016,04,07,00,11,11.80
2016,04,07,00,12,11.80
2016,04,07,00,13,11.80
2016,04,07,00,14,11.80
2016,04,07,00,15,11.80
2016,04,07,00,16,11.80
2016,04,07,00,17,11.80
2016,04,07,00,18,11.80
2016,04,07,00,19,11.80
2016,04,07,00,20,11.80
2016,04,07,00,21,11.80
2016,04,07,00,22,11.80
2016,04,07,00,23,11.80
2016,04,07,00,24,11.80
2016,04,07,00,25,11.80
2016,04,07,00,26,11.70
2016,04,07,00,27,11.70
2016,04,07,00,28,11.70
2016,04,07,00,29,11.70
2016,04,07,00,30,11.70
2016,04,07,00,31,11.70
2016,04,07,00,32,11.60
2016,04,07,00,33,11.60
2016,04,07,00,34,11.60
2016,04,07,00,35,11.60
2016,04,07,00,36,11.60
2016,04,07,00,37,11.60
2016,04,07,00,38,11.60
2016,04,07,00,39,11.60
2016,04,07,00,40,11.60
2016,04,07,00,41,11.60
2016,04,07,00,42,11.60
2016,04,07,00,43,11.60
2016,04,07,00,44,11.60
2016,04,07,00,45,11.60
2016,04,07,00,46,11.50
2016,04,07,00,47,11.40
2016,04,07,00,48,11.40
2016,04,07,00,49,11.40
2016,04,07,00,50,11.40
2016,04,07,00,51,11.40
2016,04,07,00,52,11.40
2016,04,07,00,53,11.40
2016,04,07,00,54,11.40
2016,04,07,00,55,11.40
2016,04,07,00,56,11.40
2016,04,07,00,57,11.40
2016,04,07,00,58,11.40
2016,04,07,00,59,11.40
2016,04,07,01,00,11.40
2016,04,07,01,01,11.40
2016,04,07,01,02,11.40
2016,04,07,01,03,11.40
2016,04,07,01,04,11.40
2016,04,07,01,05,11.40
2016,04,07,01,06,11.40
2016,04,07,01,07,11.40
2016,04,07,01,08,11.40
2016,04,07,01,09,11.40
2016,04,07,01,10,11.40
2016,04,07,01,11,11.40
2016,04,07,01,12,11.40
2016,04,07,01,13,11.40
2016,04,07,01,14,11.40
2016,04,07,01,15,11.40
2016,04,07,01,16,11.40
2016,04,07,01,17,11.40
2016,04,07,01,18,11.40
2016,04,07,01,19,11.40
2016,04,07,01,20,11.40
2016,04,07,01,21,11.40
2016,04,07,01,22,11.40
2016,04,07,01,23,11.40
2016,04,07,01,24,11.40
2016,04,07,01,25,11.40
2016,04,07,01,26,11.40
2016,04,07,01,27,11.40
2016,04,07,01,28,11.40
2016,04,07,01,29,11.40
2016,04,07,01,30,11.40
2016,04,07,01,31,11.40
2016,04,07,01,32,11.40
2016,04,07,01,33,11.40
2016,04,07,01,34,11.40
2016,04,07,01,35,11.40
2016,04,07,01,36,11.40
2016,04,07,01,37,11.40
2016,04,07,01,38,11.40
2016,04,07,01,39,11.40
2016,04,07,01,40,11.40
2016,04,07,01,41,11.40
2016,04,07,01,42,11.40
2016,04,07,01,43,11.40
2016,04,07,01,44,11.30
2016,04,07,01,45,11.30
2016,04,07,01,46,11.40
2016,04,07,01,47,11.40
2016,04,07,01,48,11.40
2016,04,07,01,49,11.40
2016,04,07,01,50,11.30
2016,04,07,01,51,11.30
2016,04,07,01,52,11.30
2016,04,07,01,53,11.30
2016,04,07,01,54,11.30
2016,04,07,01,55,11.30
2016,04,07,01,56,11.30
2016,04,07,01,57,11.30
2016,04,07,01,58,11.30
2016,04,07,01,59,11.30
2016,04,07,02,00,11.30
2016,04,07,02,01,11.30
2016,04,07,02,02,11.30
2016,04,07,02,03,11.20
2016,04,07,02,04,11.20
2016,04,07,02,05,11.20
2016,04,07,02,06,11.20
2016,04,07,02,07,11.20
2016,04,07,02,08,11.20
2016,04,07,02,09,11.20
2016,04,07,02,10,11.20
2016,04,07,02,11,11.20
2016,04,07,02,12,11.20
2016,04,07,02,13,11.20
2016,04,07,02,14,11.20
2016,04,07,02,15,11.20
2016,04,07,02,16,11.20
2016,04,07,02,17,11.20
2016,04,07,02,18,11.20
2016,04,07,02,19,11.20
2016,04,07,02,20,11.20
2016,04,07,02,21,11.20
2016,04,07,02,22,11.20
2016,04,07,02,23,11.20
2016,04,07,02,24,11.20
2016,04,07,02,25,11.20
2016,04,07,02,26,11.20
2016,04,07,02,27,11.20
2016,04,07,02,28,11.20
2016,04,07,02,29,11.20
2016,04,07,02,30,11.20
2016,04,07,02,31,11.10
2016,04,07,02,32,11.10
2016,04,07,02,33,11.10
2016,04,07,02,34,11.10
2016,04,07,02,35,11.10
2016,04,07,02,36,11.10
2016,04,07,02,37,11.10
2016,04,07,02,38,11.10
2016,04,07,02,39,11.10
2016,04,07,02,40,11.10
2016,04,07,02,41,11.10
2016,04,07,02,42,11.10
2016,04,07,02,43,11.10
2016,04,07,02,44,11.10
2016,04,07,02,45,11.10
2016,04,07,02,46,11.10
2016,04,07,02,47,11.10
2016,04,07,02,48,11.10
2016,04,07,02,49,11.10
2016,04,07,02,50,11.10
2016,04,07,02,51,11.10
2016,04,07,02,52,11.10
2016,04,07,02,53,11.10
2016,04,07,02,54,11.10
2016,04,07,02,55,11.10
2016,04,07,02,56,11.10
2016,04,07,02,57,11.10
2016,04,07,02,58,11.10
2016,04,07,02,59,11.10
2016,04,07,03,00,11.00
2016,04,07,03,01,11.00
2016,04,07,03,02,11.10
2016,04,07,03,03,11.10
2016,04,07,03,04,11.00
2016,04,07,03,05,10.90
2016,04,07,03,06,10.90
2016,04,07,03,07,10.90
2016,04,07,03,08,10.90
2016,04,07,03,09,10.90
2016,04,07,03,10,10.90
2016,04,07,03,11,10.90
2016,04,07,03,12,10.90
2016,04,07,03,13,10.90
2016,04,07,03,14,11.00
2016,04,07,03,15,11.10
2016,04,07,03,16,11.10
2016,04,07,03,17,11.10
2016,04,07,03,18,11.10
2016,04,07,03,19,11.10
2016,04,07,03,20,11.10
2016,04,07,03,21,11.10
2016,04,07,03,22,11.10
2016,04,07,03,23,11.10
2016,04,07,03,24,11.10
2016,04,07,03,25,11.10
2016,04,07,03,26,11.10
2016,04,07,03,27,11.10
2016,04,07,03,28,11.10
2016,04,07,03,29,11.10
2016,04,07,03,30,11.10
2016,04,07,03,31,11.10
2016,04,07,03,32,11.10
2016,04,07,03,33,11.10
2016,04,07,03,34,11.10
2016,04,07,03,35,11.10
2016,04,07,03,36,11.10
2016,04,07,03,37,11.10
2016,04,07,03,38,11.10
2016,04,07,03,39,11.10
2016,04,07,03,40,11.10
2016,04,07,03,41,11.10
2016,04,07,03,42,11.10
2016,04,07,03,43,11.10
2016,04,07,03,44,11.10
2016,04,07,03,45,11.10
2016,04,07,03,46,11.10
2016,04,07,03,47,11.10
2016,04,07,03,48,11.10
2016,04,07,03,49,11.10
2016,04,07,03,50,11.10
2016,04,07,03,51,11.10
2016,04,07,03,52,11.10
2016,04,07,03,53,11.10
2016,04,07,03,54,11.10
2016,04,07,03,55,11.10
2016,04,07,03,56,11.10
2016,04,07,03,57,11.10
2016,04,07,03,58,11.10
2016,04,07,03,59,11.10
2016,04,07,04,00,11.10
2016,04,07,04,01,11.10
2016,04,07,04,02,11.10
2016,04,07,04,03,11.10
2016,04,07,04,04,11.10
2016,04,07,04,05,11.10
2016,04,07,04,06,11.10
2016,04,07,04,07,11.10
2016,04,07,04,08,11.10
2016,04,07,04,09,11.10
2016,04,07,04,10,11.10
2016,04,07,04,11,11.10
2016,04,07,04,12,11.10
2016,04,07,04,13,11.10
2016,04,07,04,14,11.10
2016,04,07,04,15,11.10
2016,04,07,04,16,11.10
2016,04,07,04,17,11.10
2016,04,07,04,18,11.10
2016,04,07,04,19,11.10
2016,04,07,04,20,11.10
2016,04,07,04,21,11.00
2016,04,07,04,22,10.90
2016,04,07,04,23,10.90
2016,04,07,04,24,10.90
2016,04,07,04,25,10.90
2016,04,07,04,26,10.90
2016,04,07,04,27,10.90
2016,04,07,04,28,10.90
2016,04,07,04,29,10.90
2016,04,07,04,30,10.90
2016,04,07,04,31,10.90
2016,04,07,04,32,10.90
2016,04,07,04,33,10.90
2016,04,07,04,34,10.90
2016,04,07,04,35,10.80
2016,04,07,04,36,10.80
2016,04,07,04,37,10.80
2016,04,07,04,38,10.80
2016,04,07,04,39,10.80
2016,04,07,04,40,10.70
2016,04,07,04,41,10.70
2016,04,07,04,42,10.70
2016,04,07,04,43,10.70
2016,04,07,04,44,10.70
2016,04,07,04,45,10.70
2016,04,07,04,46,10.70
2016,04,07,04,47,10.70
2016,04,07,04,48,10.70
2016,04,07,04,49,10.70
2016,04,07,04,50,10.70
2016,04,07,04,51,10.70
2016,04,07,04,52,10.70
2016,04,07,04,53,10.60
2016,04,07,04,54,10.60
2016,04,07,04,55,10.60
2016,04,07,04,56,10.60
2016,04,07,04,57,10.60
2016,04,07,04,58,10.60
2016,04,07,04,59,10.60
2016,04,07,05,00,10.60
2016,04,07,05,01,10.60
2016,04,07,05,02,10.60
2016,04,07,05,03,10.60
2016,04,07,05,04,10.60
2016,04,07,05,05,10.60
2016,04,07,05,06,10.60
2016,04,07,05,07,10.60
2016,04,07,05,08,10.60
2016,04,07,05,09,10.60
2016,04,07,05,10,10.60
2016,04,07,05,11,10.60
2016,04,07,05,12,10.60
2016,04,07,05,13,10.60
2016,04,07,05,14,10.60
2016,04,07,05,15,10.60
2016,04,07,05,16,10.60
2016,04,07,05,17,10.60
2016,04,07,05,18,10.60
2016,04,07,05,19,10.60
2016,04,07,05,20,10.60
2016,04,07,05,21,10.60
2016,04,07,05,22,10.60
2016,04,07,05,23,10.60
2016,04,07,05,24,10.60
2016,04,07,05,25,10.60
2016,04,07,05,26,10.60
2016,04,07,05,27,10.60
2016,04,07,05,28,10.60
2016,04,07,05,29,10.60
2016,04,07,05,30,10.60
2016,04,07,05,31,10.60
2016,04,07,05,32,10.60
2016,04,07,05,33,10.60
2016,04,07,05,34,10.60
2016,04,07,05,35,10.60
2016,04,07,05,36,10.60
2016,04,07,05,37,10.60
2016,04,07,05,38,10.60
2016,04,07,05,39,10.60
2016,04,07,05,40,10.60
2016,04,07,05,41,10.60
2016,04,07,05,42,10.60
2016,04,07,05,43,10.60
2016,04,07,05,44,10.60
2016,04,07,05,45,10.60
2016,04,07,05,46,10.60
2016,04,07,05,47,10.60
2016,04,07,05,48,10.70
2016,04,07,05,49,10.70
2016,04,07,05,50,10.70
2016,04,07,05,51,10.70
2016,04,07,05,52,10.70
2016,04,07,05,53,10.70
2016,04,07,05,54,10.70
2016,04,07,05,55,10.70
2016,04,07,05,56,10.70
2016,04,07,05,57,10.70
2016,04,07,05,58,10.70
2016,04,07,05,59,10.70
2016,04,07,06,00,10.70
2016,04,07,06,01,10.70
2016,04,07,06,02,10.70
2016,04,07,06,03,10.70
2016,04,07,06,04,10.70
2016,04,07,06,05,10.70
2016,04,07,06,06,10.70
2016,04,07,06,07,10.70
2016,04,07,06,08,10.70
2016,04,07,06,09,10.70
2016,04,07,06,10,10.70
2016,04,07,06,11,10.70
2016,04,07,06,12,10.70
2016,04,07,06,13,10.70
2016,04,07,06,14,10.70
2016,04,07,06,15,10.80
2016,04,07,06,16,10.80
2016,04,07,06,17,10.70
2016,04,07,06,18,10.70
2016,04,07,06,19,10.70
2016,04,07,06,20,10.70
2016,04,07,06,21,10.70
2016,04,07,06,22,10.70
2016,04,07,06,23,10.70
2016,04,07,06,24,10.70
2016,04,07,06,25,10.70
2016,04,07,06,26,10.70
2016,04,07,06,27,10.60
2016,04,07,06,28,10.60
2016,04,07,06,29,10.60
2016,04,07,06,30,10.60
2016,04,07,06,31,10.70
2016,04,07,06,32,10.70
2016,04,07,06,33,10.70
2016,04,07,06,34,10.60
2016,04,07,06,35,10.60
2016,04,07,06,36,10.60
2016,04,07,06,37,10.60
2016,04,07,06,38,10.60
2016,04,07,06,39,10.60
2016,04,07,06,40,10.40
2016,04,07,06,41,10.40
2016,04,07,06,42,10.40
2016,04,07,06,43,10.30
2016,04,07,06,44,10.30
2016,04,07,06,45,10.20
2016,04,07,06,46,10.20
2016,04,07,06,47,10.20
2016,04,07,06,48,10.10
2016,04,07,06,49,10.10
2016,04,07,06,50,10.10
2016,04,07,06,51,10.10
2016,04,07,06,52,10.10
2016,04,07,06,53,10.10
2016,04,07,06,54,10.00
2016,04,07,06,55,9.90
2016,04,07,06,56,9.90
2016,04,07,06,57,9.90
2016,04,07,06,58,9.90
2016,04,07,06,59,9.90
2016,04,07,07,00,9.90
2016,04,07,07,01,9.90
2016,04,07,07,02,9.90
2016,04,07,07,03,10.00
2016,04,07,07,04,10.10
2016,04,07,07,05,10.10
2016,04,07,07,06,10.10
2016,04,07,07,07,10.10
2016,04,07,07,08,10.10
2016,04,07,07,09,10.10
2016,04,07,07,10,10.10
2016,04,07,07,11,10.10
2016,04,07,07,12,10.10
2016,04,07,07,13,10.10
2016,04,07,07,14,10.10
2016,04,07,07,15,10.10
2016,04,07,07,16,10.20
2016,04,07,07,17,10.20
2016,04,07,07,18,10.30
2016,04,07,07,19,10.30
2016,04,07,07,20,10.40
2016,04,07,07,21,10.40
2016,04,07,07,22,10.40
2016,04,07,07,23,10.50
2016,04,07,07,24,10.60
2016,04,07,07,25,10.60
2016,04,07,07,26,10.60
2016,04,07,07,27,10.60
2016,04,07,07,28,10.70
2016,04,07,07,29,10.70
2016,04,07,07,30,10.70
2016,04,07,07,31,10.80
2016,04,07,07,32,10.90
2016,04,07,07,33,10.90
2016,04,07,07,34,10.90
2016,04,07,07,35,10.90
2016,04,07,07,36,10.90
2016,04,07,07,37,11.00
2016,04,07,07,38,11.10
2016,04,07,07,39,11.10
2016,04,07,07,40,11.10
2016,04,07,07,41,11.10
2016,04,07,07,42,11.10
2016,04,07,07,43,11.10
2016,04,07,07,44,11.10
2016,04,07,07,45,11.10
2016,04,07,07,46,11.20
2016,04,07,07,47,11.20
2016,04,07,07,48,11.20
2016,04,07,07,49,11.30
2016,04,07,07,50,11.30
2016,04,07,07,51,11.30
2016,04,07,07,52,11.40
2016,04,07,07,53,11.40
2016,04,07,07,54,11.40
2016,04,07,07,55,11.40
2016,04,07,07,56,11.50
2016,04,07,07,57,11.60
2016,04,07,07,58,11.60
2016,04,07,07,59,11.60
2016,04,07,08,00,11.60
2016,04,07,08,01,11.60
2016,04,07,08,02,11.60
2016,04,07,08,03,11.70
2016,04,07,08,04,11.70
2016,04,07,08,05,11.70
2016,04,07,08,06,11.70
2016,04,07,08,07,11.70
2016,04,07,08,08,11.70
2016,04,07,08,09,11.70
2016,04,07,08,10,11.70
2016,04,07,08,11,11.70
2016,04,07,08,12,11.70
2016,04,07,08,13,11.80
2016,04,07,08,14,11.80
2016,04,07,08,15,11.80
2016,04,07,08,16,11.80
2016,04,07,08,17,11.80
2016,04,07,08,18,11.90
2016,04,07,08,19,11.90
2016,04,07,08,20,12.00
2016,04,07,08,21,12.00
2016,04,07,08,22,12.10
2016,04,07,08,23,12.10
2016,04,07,08,24,12.20
2016,04,07,08,25,12.20
2016,04,07,08,26,12.30
2016,04,07,08,27,12.30
2016,04,07,08,28,12.30
2016,04,07,08,29,12.30
2016,04,07,08,30,12.30
2016,04,07,08,31,12.40
2016,04,07,08,32,12.40
2016,04,07,08,33,12.40
2016,04,07,08,34,12.50
2016,04,07,08,35,12.50
2016,04,07,08,36,12.50
2016,04,07,08,37,12.60
2016,04,07,08,38,12.60
2016,04,07,08,39,12.70
2016,04,07,08,40,12.70
2016,04,07,08,41,12.80
2016,04,07,08,42,12.80
2016,04,07,08,43,12.80
2016,04,07,08,44,12.80
2016,04,07,08,45,12.80
2016,04,07,08,46,12.80
2016,04,07,08,47,12.80
2016,04,07,08,48,12.80
2016,04,07,08,49,12.80
2016,04,07,08,50,12.90
2016,04,07,08,51,12.90
2016,04,07,08,52,12.90
2016,04,07,08,53,13.00
2016,04,07,08,54,13.00
2016,04,07,08,55,13.00
2016,04,07,08,56,13.00
2016,04,07,08,57,13.10
2016,04,07,08,58,13.10
2016,04,07,08,59,13.10
2016,04,07,09,00,13.20
2016,04,07,09,01,13.20
2016,04,07,09,02,13.20
2016,04,07,09,03,13.20
2016,04,07,09,04,13.30
2016,04,07,09,05,13.30
2016,04,07,09,06,13.30
2016,04,07,09,07,13.30
2016,04,07,09,08,13.30
2016,04,07,09,09,13.30
2016,04,07,09,10,13.40
2016,04,07,09,11,13.50
2016,04,07,09,12,13.50
2016,04,07,09,13,13.60
2016,04,07,09,14,13.70
2016,04,07,09,15,13.70
2016,04,07,09,16,13.70
2016,04,07,09,17,13.70
2016,04,07,09,18,13.70
2016,04,07,09,19,13.70
2016,04,07,09,20,13.80
2016,04,07,09,21,13.80
2016,04,07,09,22,13.80
2016,04,07,09,23,13.80
2016,04,07,09,24,13.80
2016,04,07,09,25,13.80
2016,04,07,09,26,13.90
2016,04,07,09,27,13.90
2016,04,07,09,28,13.90
2016,04,07,09,29,14.00
2016,04,07,09,30,14.00
2016,04,07,09,31,14.00
2016,04,07,09,32,14.00
2016,04,07,09,33,14.00
2016,04,07,09,34,14.10
2016,04,07,09,35,14.20
2016,04,07,09,36,14.20
2016,04,07,09,37,14.20
2016,04,07,09,38,14.20
2016,04,07,09,39,14.30
2016,04,07,09,40,14.30
2016,04,07,09,41,14.40
2016,04,07,09,42,14.40
2016,04,07,09,43,14.50
2016,04,07,09,44,14.50
2016,04,07,09,45,14.60
2016,04,07,09,46,14.70
2016,04,07,09,47,14.80
2016,04,07,09,48,14.80
2016,04,07,09,49,14.80
2016,04,07,09,50,14.80
2016,04,07,09,51,14.80
2016,04,07,09,52,14.90
2016,04,07,09,53,14.90
2016,04,07,09,54,14.90
2016,04,07,09,55,14.90
2016,04,07,09,56,14.90
2016,04,07,09,57,14.90
2016,04,07,09,58,15.00
2016,04,07,09,59,15.00
2016,04,07,10,00,15.10
2016,04,07,10,01,15.10
2016,04,07,10,02,15.20
2016,04,07,10,03,15.20
2016,04,07,10,04,15.30
2016,04,07,10,05,15.30
2016,04,07,10,06,15.40
2016,04,07,10,07,15.40
2016,04,07,10,08,15.50
2016,04,07,10,09,15.50
2016,04,07,10,10,15.60
2016,04,07,10,11,15.60
2016,04,07,10,12,15.70
2016,04,07,10,13,15.70
2016,04,07,10,14,15.80
2016,04,07,10,15,15.80
2016,04,07,10,16,15.80
2016,04,07,10,17,16.00
2016,04,07,10,18,16.10
2016,04,07,10,19,16.10
2016,04,07,10,20,16.10
2016,04,07,10,21,16.00
2016,04,07,10,22,15.90
2016,04,07,10,23,16.00
2016,04,07,10,24,16.10
2016,04,07,10,25,16.10
2016,04,07,10,26,16.10
2016,04,07,10,27,16.10
2016,04,07,10,28,16.10
2016,04,07,10,29,16.10
2016,04,07,10,30,16.10
2016,04,07,10,31,16.10
2016,04,07,10,32,16.10
2016,04,07,10,33,16.10
2016,04,07,10,34,16.10
2016,04,07,10,35,16.10
2016,04,07,10,36,16.00
2016,04,07,10,37,15.90
2016,04,07,10,38,16.00
2016,04,07,10,39,16.10
2016,04,07,10,40,16.20
2016,04,07,10,41,16.20
2016,04,07,10,42,16.30
2016,04,07,10,43,16.30
2016,04,07,10,44,16.30
2016,04,07,10,45,16.30
2016,04,07,10,46,16.20
2016,04,07,10,47,16.20
2016,04,07,10,48,16.10
2016,04,07,10,49,16.10
2016,04,07,10,50,16.10
2016,04,07,10,51,16.20
2016,04,07,10,52,16.10
2016,04,07,10,53,16.20
2016,04,07,10,54,16.20
2016,04,07,10,55,16.20
2016,04,07,10,56,16.20
2016,04,07,10,57,16.20
2016,04,07,10,58,16.20
2016,04,07,10,59,16.30
2016,04,07,11,00,16.30
2016,04,07,11,01,16.30
2016,04,07,11,02,16.40
2016,04,07,11,03,16.40
2016,04,07,11,04,16.40
2016,04,07,11,05,16.50
2016,04,07,11,06,16.60
2016,04,07,11,07,16.70
2016,04,07,11,08,16.70
2016,04,07,11,09,16.70
2016,04,07,11,10,16.70
2016,04,07,11,11,16.70
2016,04,07,11,12,16.80
2016,04,07,11,13,16.90
2016,04,07,11,14,16.90
2016,04,07,11,15,16.90
2016,04,07,11,16,16.90
2016,04,07,11,17,16.90
2016,04,07,11,18,17.00
2016,04,07,11,19,16.90
2016,04,07,11,20,16.90
2016,04,07,11,21,17.00
2016,04,07,11,22,17.00
2016,04,07,11,23,17.10
2016,04,07,11,24,17.00
2016,04,07,11,25,17.00
2016,04,07,11,26,17.00
2016,04,07,11,27,17.10
2016,04,07,11,28,17.20
2016,04,07,11,29,17.30
2016,04,07,11,30,17.30
2016,04,07,11,31,17.30
2016,04,07,11,32,17.30
2016,04,07,11,33,17.30
2016,04,07,11,34,17.20
2016,04,07,11,35,17.30
2016,04,07,11,36,17.30
2016,04,07,11,37,17.20
2016,04,07,11,38,17.10
2016,04,07,11,39,17.10
2016,04,07,11,40,17.10
2016,04,07,11,41,17.20
2016,04,07,11,42,17.20
2016,04,07,11,43,17.20
2016,04,07,11,44,17.30
2016,04,07,11,45,17.30
2016,04,07,11,46,17.30
2016,04,07,11,47,17.30
2016,04,07,11,48,17.30
2016,04,07,11,49,17.30
2016,04,07,11,50,17.30
2016,04,07,11,51,17.30
2016,04,07,11,52,17.30
2016,04,07,11,53,17.30
2016,04,07,11,54,17.30
2016,04,07,11,55,17.30
2016,04,07,11,56,17.30
2016,04,07,11,57,17.50
2016,04,07,11,58,17.60
2016,04,07,11,59,17.70
2016,04,07,12,00,17.70
2016,04,07,12,01,17.80
2016,04,07,12,02,17.90
2016,04,07,12,03,18.10
2016,04,07,12,04,18.10
2016,04,07,12,05,18.10
2016,04,07,12,06,18.10
2016,04,07,12,07,18.10
2016,04,07,12,08,18.20
2016,04,07,12,09,18.20
2016,04,07,12,10,18.20
2016,04,07,12,11,18.10
2016,04,07,12,12,18.10
2016,04,07,12,13,18.10
2016,04,07,12,14,18.10
2016,04,07,12,15,18.20
2016,04,07,12,16,18.20
2016,04,07,12,17,18.20
2016,04,07,12,18,18.20
2016,04,07,12,19,18.20
2016,04,07,12,20,18.30
2016,04,07,12,21,18.20
2016,04,07,12,22,18.20
2016,04,07,12,23,18.30
2016,04,07,12,24,18.30
2016,04,07,12,25,18.40
2016,04,07,12,26,18.50
2016,04,07,12,27,18.50
2016,04,07,12,28,18.50
2016,04,07,12,29,18.40
2016,04,07,12,30,18.40
2016,04,07,12,31,18.40
2016,04,07,12,32,18.40
2016,04,07,12,33,18.40
2016,04,07,12,34,18.30
2016,04,07,12,35,18.40
2016,04,07,12,36,18.50
2016,04,07,12,37,18.50
2016,04,07,12,38,18.60
2016,04,07,12,39,18.60
2016,04,07,12,40,18.70
2016,04,07,12,41,18.60
2016,04,07,12,42,18.60
2016,04,07,12,43,18.60
2016,04,07,12,44,18.60
2016,04,07,12,45,18.60
2016,04,07,12,46,18.50
2016,04,07,12,47,18.50
2016,04,07,12,48,18.60
2016,04,07,12,49,18.60
2016,04,07,12,50,18.70
2016,04,07,12,51,18.70
2016,04,07,12,52,18.80
2016,04,07,12,53,18.90
2016,04,07,12,54,19.00
2016,04,07,12,55,19.10
2016,04,07,12,56,19.20
2016,04,07,12,57,19.30
2016,04,07,12,58,19.50
2016,04,07,12,59,19.50
2016,04,07,13,00,19.50
2016,04,07,13,01,19.50
2016,04,07,13,02,19.60
2016,04,07,13,03,19.70
2016,04,07,13,04,19.80
2016,04,07,13,05,19.90
2016,04,07,13,06,19.80
2016,04,07,13,07,19.80
2016,04,07,13,08,19.80
2016,04,07,13,09,19.70
2016,04,07,13,10,19.60
2016,04,07,13,11,19.60
2016,04,07,13,12,19.60
2016,04,07,13,13,19.60
2016,04,07,13,14,19.60
2016,04,07,13,15,19.60
2016,04,07,13,16,19.60
2016,04,07,13,17,19.60
2016,04,07,13,18,19.60
2016,04,07,13,19,19.60
2016,04,07,13,20,19.70
2016,04,07,13,21,19.90
2016,04,07,13,22,19.90
2016,04,07,13,23,20.10
2016,04,07,13,24,20.20
2016,04,07,13,25,20.20
2016,04,07,13,26,20.20
2016,04,07,13,27,20.20
2016,04,07,13,28,20.10
2016,04,07,13,29,20.10
2016,04,07,13,30,20.10
2016,04,07,13,31,20.10
2016,04,07,13,32,20.10
2016,04,07,13,33,20.10
2016,04,07,13,34,20.10
2016,04,07,13,35,20.00
2016,04,07,13,36,19.90
2016,04,07,13,37,19.90
2016,04,07,13,38,19.90
2016,04,07,13,39,19.90
2016,04,07,13,40,19.80
2016,04,07,13,41,19.80
2016,04,07,13,42,19.90
2016,04,07,13,43,19.90
2016,04,07,13,44,19.90
2016,04,07,13,45,19.90
2016,04,07,13,46,19.80
2016,04,07,13,47,19.80
2016,04,07,13,48,19.80
2016,04,07,13,49,19.70
2016,04,07,13,50,19.80
2016,04,07,13,51,19.80
2016,04,07,13,52,19.80
2016,04,07,13,53,19.90
2016,04,07,13,54,19.90
2016,04,07,13,55,20.00
2016,04,07,13,56,20.10
2016,04,07,13,57,20.20
2016,04,07,13,58,20.30
2016,04,07,13,59,20.40
2016,04,07,14,00,20.50
2016,04,07,14,01,20.50
2016,04,07,14,02,20.60
2016,04,07,14,03,20.50
2016,04,07,14,04,20.50
2016,04,07,14,05,20.50
2016,04,07,14,06,20.60
2016,04,07,14,07,20.60
2016,04,07,14,08,20.60
2016,04,07,14,09,20.60
2016,04,07,14,10,20.80
2016,04,07,14,11,20.80
2016,04,07,14,12,20.80
2016,04,07,14,13,20.80
2016,04,07,14,14,20.90
2016,04,07,14,15,21.00
2016,04,07,14,16,21.00
2016,04,07,14,17,21.00
2016,04,07,14,18,21.00
2016,04,07,14,19,21.10
2016,04,07,14,20,21.10
2016,04,07,14,21,21.10
2016,04,07,14,22,21.10
2016,04,07,14,23,21.10
2016,04,07,14,24,21.00
2016,04,07,14,25,21.00
2016,04,07,14,26,20.90
2016,04,07,14,27,20.90
2016,04,07,14,28,20.90
2016,04,07,14,29,20.90
2016,04,07,14,30,20.90
2016,04,07,14,31,20.90
2016,04,07,14,32,20.90
2016,04,07,14,33,20.90
2016,04,07,14,34,20.90
2016,04,07,14,35,21.00
2016,04,07,14,36,21.10
2016,04,07,14,37,21.10
2016,04,07,14,38,21.20
2016,04,07,14,39,21.20
2016,04,07,14,40,21.30
2016,04,07,14,41,21.30
2016,04,07,14,42,21.30
2016,04,07,14,43,21.30
2016,04,07,14,44,21.30
2016,04,07,14,45,21.30
2016,04,07,14,46,21.40
2016,04,07,14,47,21.50
2016,04,07,14,48,21.60
2016,04,07,14,49,21.60
2016,04,07,14,50,21.60
2016,04,07,14,51,21.60
2016,04,07,14,52,21.60
2016,04,07,14,53,21.60
2016,04,07,14,54,21.60
2016,04,07,14,55,21.60
2016,04,07,14,56,21.60
2016,04,07,14,57,21.60
2016,04,07,14,58,21.60
2016,04,07,14,59,21.60
2016,04,07,15,00,21.60
2016,04,07,15,01,21.70
2016,04,07,15,02,21.80
2016,04,07,15,03,21.80
2016,04,07,15,04,21.90
2016,04,07,15,05,22.00
2016,04,07,15,06,22.00
2016,04,07,15,07,22.10
2016,04,07,15,08,22.10
2016,04,07,15,09,22.20
2016,04,07,15,10,22.20
2016,04,07,15,11,22.10
2016,04,07,15,12,22.10
2016,04,07,15,13,22.20
2016,04,07,15,14,22.20
2016,04,07,15,15,22.30
2016,04,07,15,16,22.30
2016,04,07,15,17,22.30
2016,04,07,15,18,22.40
2016,04,07,15,19,22.40
2016,04,07,15,20,22.40
2016,04,07,15,21,22.40
2016,04,07,15,22,22.30
2016,04,07,15,23,22.20
2016,04,07,15,24,22.20
2016,04,07,15,25,22.20
2016,04,07,15,26,22.20
2016,04,07,15,27,22.20
2016,04,07,15,28,22.20
2016,04,07,15,29,22.20
2016,04,07,15,30,22.30
2016,04,07,15,31,22.30
2016,04,07,15,32,22.20
2016,04,07,15,33,22.10
2016,04,07,15,34,22.10
2016,04,07,15,35,22.10
2016,04,07,15,36,22.20
2016,04,07,15,37,22.30
2016,04,07,15,38,22.40
2016,04,07,15,39,22.40
2016,04,07,15,40,22.40
2016,04,07,15,41,22.50
2016,04,07,15,42,22.50
2016,04,07,15,43,22.60
2016,04,07,15,44,22.60
2016,04,07,15,45,22.60
2016,04,07,15,46,22.50
2016,04,07,15,47,22.50
2016,04,07,15,48,22.50
2016,04,07,15,49,22.40
2016,04,07,15,50,22.50
2016,04,07,15,51,22.50
2016,04,07,15,52,22.50
2016,04,07,15,53,22.50
2016,04,07,15,54,22.50
2016,04,07,15,55,22.50
2016,04,07,15,56,22.60
2016,04,07,15,57,22.60
2016,04,07,15,58,22.60
2016,04,07,15,59,22.50
2016,04,07,16,00,22.50
2016,04,07,16,01,22.40
2016,04,07,16,02,22.40
2016,04,07,16,03,22.40
2016,04,07,16,04,22.50
2016,04,07,16,05,22.50
2016,04,07,16,06,22.60
2016,04,07,16,07,22.70
2016,04,07,16,08,22.80
2016,04,07,16,09,22.80
2016,04,07,16,10,22.90
2016,04,07,16,11,22.90
2016,04,07,16,12,23.00
2016,04,07,16,13,23.10
2016,04,07,16,14,23.10
2016,04,07,16,15,23.10
2016,04,07,16,16,23.20
2016,04,07,16,17,23.20
2016,04,07,16,18,23.20
2016,04,07,16,19,23.30
2016,04,07,16,20,23.30
2016,04,07,16,21,23.20
2016,04,07,16,22,23.10
2016,04,07,16,23,23.10
2016,04,07,16,24,23.10
2016,04,07,16,25,23.10
2016,04,07,16,26,22.90
2016,04,07,16,27,22.90
2016,04,07,16,28,22.80
2016,04,07,16,29,22.80
2016,04,07,16,30,22.90
2016,04,07,16,31,22.90
2016,04,07,16,32,22.90
2016,04,07,16,33,23.00
2016,04,07,16,34,23.10
2016,04,07,16,35,23.10
2016,04,07,16,36,23.10
2016,04,07,16,37,23.00
2016,04,07,16,38,22.90
2016,04,07,16,39,22.90
2016,04,07,16,40,22.90
2016,04,07,16,41,22.90
2016,04,07,16,42,22.80
2016,04,07,16,43,22.80
2016,04,07,16,44,22.80
2016,04,07,16,45,22.80
2016,04,07,16,46,22.80
2016,04,07,16,47,22.80
2016,04,07,16,48,22.80
2016,04,07,16,49,22.90
2016,04,07,16,50,22.90
2016,04,07,16,51,22.90
2016,04,07,16,52,22.90
2016,04,07,16,53,22.90
2016,04,07,16,54,22.90
2016,04,07,16,55,22.90
2016,04,07,16,56,22.90
2016,04,07,16,57,22.90
2016,04,07,16,58,22.90
2016,04,07,16,59,22.90
2016,04,07,17,00,22.90
2016,04,07,17,01,22.90
2016,04,07,17,02,22.90
2016,04,07,17,03,22.90
2016,04,07,17,04,22.90
2016,04,07,17,05,22.90
2016,04,07,17,06,22.80
2016,04,07,17,07,22.70
2016,04,07,17,08,22.60
2016,04,07,17,09,22.50
2016,04,07,17,10,22.50
2016,04,07,17,11,22.50
2016,04,07,17,12,22.50
2016,04,07,17,13,22.50
2016,04,07,17,14,22.50
2016,04,07,17,15,22.40
2016,04,07,17,16,22.40
2016,04,07,17,17,22.30
2016,04,07,17,18,22.20
2016,04,07,17,19,22.10